Showing default

GALILEO 9 (205), 40889

Orbit data source: Space-Track

GALILEO 9 (205), 40889 is a payload satellite owned by GNSS Agency (ESA) that was launched on Fri, 11 Sep 2015 UTC via a SOYUZ-ST-B launch vehicle from the French Guiana (FRGUI). Payload-class satellites include a variety of spacecraft equipped with specific instruments for various scientific and technological missions. These include communications satellites like Starlink; space stations such as the ISS; scientific satellites like the Hubble; Earth observation satellites from companies like Planet Labs, Umbra, and HawkEye 360; GPS; miniature CubeSats for education and research; and military/defense satellites.

Loading next visibility...
Identifier
40889, 2015-045A
Orbit
Active
Last TLE update
1 day ago
Origin
Manufacturer
OHB
Mission
Operational Civil Navigation
Bus & Motor
GALILEOSAT, AOCS
Mass
733 kg wet, 660 kg dry
Launch date (UTC)
2015-09-11 (10 years ago)
Launch vehicle
SOYUZ-ST-B
Launch site
French Guiana (FRGUI)
Object type
Payload
Rocket body
Debris
Shape & HBR
Box + 2 Pan, 14.71 m
Radar Cross Section
9.223 m², Large (>1 m²)

Expand to show TLE details & history

TLE from 1 day ago
0 GALILEO 9 (205)
1 40889U 15045A   25127.90653990 -.00000036  00000-0  00000-0 0  9992
2 40889  55.0815 232.7992 0004077  43.9404 316.0905  1.70474199 60104
Epoch: 2025-05-07T21:45Z
Definitive object data (Epoch: 2025-05-07T21:45:25.047Z)
Latitude
0.00003°
Longitude
40.44624°
Altitude
23,213.73 km
Speed
3.671 km/s
True Right ascension
15h 31m 08s
True Declination
0° 00' 00"
Sunlit
Object was in daylight at TLE epoch
Visualization TLE readout
Latitude
52.12297°
Longitude
156.88129°
Altitude
23,223.703 km
Speed
3.671 km/s
Apparent Right ascension
23h 52m 19s
Apparent Declination
41° 14' 13"
Sunlit
Object is in daylight
Visualization observer readout
Local Sidereal Time
14:11:47
Azimuth
25.495° NE
Elevation
-2.881°
Doppler factor
1
Orbital elements
Apogee altitude
23,234.234 km
Perigee altitude
23,210.097 km
Semi-major axis
29,600.302 km
Eccentricity
0.0004077
Inclination
55.0815°
RAAN
232.7992°
Arg. of periapsis
43.9404°
True anomaly
316.05809°
Mean anomaly
316.0905°
Eccentric anomaly
316.07429°
Mean motion
0.42619 °/min
BSTAR
Unknown
Orbital period
844.7 mins
Loading maneuver chart data...
Loading SW <> Apogee altitude chart data...
Loading historical data...
Loading historical data...
Loading historical data...
Loading historical data...
Loading historical data...
Loading historical data...
Loading historical data...
Other satellites on launch #45 in the year 2015 (2015-09-11 UTC)

GALILEO 9 (205) Visibility forecast

Observer location: undefined°, undefined°

Span
Click to sort rows by Start time (UTC) header in descending order
Start Az.
Max El. time (UTC)
Max El. Az.
Max El.
End time (UTC)
End Az.
253 mins2025-05-09 19:01:00.982Z321.563° NNW2025-05-09 21:06:00.982Z288.437° WNW29.188°2025-05-09 23:14:00.982Z243.018° WSW
72 mins2025-05-10 04:51:00.982Z162.566° S2025-05-10 06:03:00.982Z152.639° SSE30.628°2025-05-10 06:03:00.982Z152.639° SSE
|